Weather History for McGrath, AK

Change the Weather History Date:

Wednesday, June 19, 2013

  Actual Average Record
Temperature  
Mean Temperature 70 °F 59 °F  
Max Temperature 81 °F 69 °F 86 °F (1962)
Min Temperature 59 °F 48 °F 35 °F (1965)
Degree Days  
Heating Degree Days 0    
Month to date heating degree days 108 174  
Since 1 June heating degree days 108 174  
Since 1 July heating degree days 14436 13695  
Cooling Degree Days 5    
Month to date cooling degree days 36  
Year to date cooling degree days 45  
Since 1 June cooling degree days 36  
Growing Degree Days 22 (Base 50)    
Moisture  
Dew Point 45 °F    
Average Humidity 0    
Maximum Humidity 0    
Minimum Humidity 0    
Precipitation  
Precipitation 0.00 in 0.05 in 0.77 in (1964)
Month to date precipitation 0.63 0.88  
Year to date precipitation 4.49 5.55  
Snow  
Snow 0.00 in 0.00 in 0.00 in (2014)
Month to date snowfall 0.0 0.0  
Since 1 June snowfall 0.0 0.0  
Since 1 July snowfall 75.0 97.3  
Snow Depth 0.00 in    
Sea Level Pressure  
Sea Level Pressure 29.78 in    
Wind  
Wind Speed 6 mph (South)    
Max Wind Speed 17 mph    
Max Gust Speed 28 mph    
Visibility 8 miles    
Events      
T = Trace of Precipitation, MM = Missing Value Source: NWS Daily Summary

Daily Weather History Graph

Daily Weather History Graph

Search for Another Location

Airport:

Trip Planner

Search our weather history database for the weather conditions in past years. The results will help you decide how hot, cold, wet, or windy it might be!

Date:

Astronomy

Jun. 19, 2013 Rise Set
Actual Time 4:15 AM AKDT 12:32 AM AKDT
Civil Twilight 2:56 AM AKDT 1:51 AM AKDT
Nautical Twilight Sun does not rise Sun does not rise
Astronomical Twilight Sun does not rise Sun does not rise
Moon 7:24 PM AKDT 2:37 AM AKDT
Length of Visible Light 22h 55m
Length of Day
20h 16m
Waxing Gibbous, 82% of the Moon is Illuminated
Jun 19
Waxing Gibbous
Jun 23
Full
Jun 29
Last Quarter
Jul 7
New
Jul 15
First Quarter

Hourly Weather History & Observations

Time (AKDT) Temp. Dew Point Humidity Pressure Visibility Wind Dir Wind Speed Gust Speed Precip Events Conditions
12:53 AM 73.0 °F 42.1 °F 33% 29.75 in 10.0 mi South 5.8 mph - N/A   Partly Cloudy
1:53 AM 68.0 °F 46.9 °F 47% 29.76 in 3.0 mi South 4.6 mph - N/A   Smoke
1:59 AM 68.0 °F 46.4 °F 46% 29.76 in 2.5 mi South 3.5 mph - N/A   Smoke
2:28 AM 66.2 °F 46.4 °F 49% 29.76 in 2.0 mi South 5.8 mph - N/A   Smoke
2:53 AM 66.2 °F 46.4 °F 49% 29.77 in 2.5 mi South 3.5 mph - N/A   Smoke
2:56 AM 66.2 °F 46.4 °F 49% 29.76 in 2.5 mi South 3.5 mph - N/A   Smoke
3:03 AM 66.2 °F 46.4 °F 49% 29.77 in 3.0 mi South 3.5 mph - N/A   Smoke
3:53 AM 66.2 °F 46.4 °F 49% 29.77 in 9.0 mi South 11.5 mph 20.7 mph N/A   Smoke
4:53 AM 63.0 °F 46.9 °F 56% 29.78 in 10.0 mi SSW 5.8 mph - N/A   Partly Cloudy
5:53 AM 61.0 °F 46.0 °F 58% 29.79 in 10.0 mi Calm Calm - N/A   Partly Cloudy
6:53 AM 63.0 °F 45.0 °F 52% 29.80 in 10.0 mi SSW 5.8 mph - N/A   Partly Cloudy
7:53 AM 62.6 °F 44.6 °F 52% 29.81 in 9.0 mi Variable 6.9 mph - N/A   Smoke
8:53 AM 64.0 °F 43.0 °F 46% 29.81 in 10.0 mi SSW 8.1 mph - N/A   Clear
9:53 AM 66.0 °F 44.1 °F 45% 29.81 in 10.0 mi Variable 6.9 mph - N/A   Partly Cloudy
10:53 AM 66.9 °F 44.1 °F 44% 29.81 in 10.0 mi SSW 5.8 mph - N/A   Partly Cloudy
11:53 AM 70.0 °F 44.1 °F 39% 29.81 in 10.0 mi SSW 6.9 mph - N/A   Partly Cloudy
12:53 PM 73.9 °F 45.0 °F 35% 29.80 in 10.0 mi SW 9.2 mph - N/A   Partly Cloudy
1:53 PM 75.0 °F 45.0 °F 34% 29.79 in 10.0 mi South 3.5 mph - N/A   Scattered Clouds
2:53 PM 75.0 °F 44.1 °F 33% 29.78 in 10.0 mi Variable 4.6 mph - N/A   Scattered Clouds
3:53 PM 77.0 °F 44.1 °F 31% 29.77 in 10.0 mi Calm Calm - N/A   Scattered Clouds
4:53 PM 80.1 °F 44.1 °F 28% 29.76 in 10.0 mi Calm Calm - N/A   Scattered Clouds
5:53 PM 80.1 °F 44.1 °F 28% 29.74 in 8.0 mi Calm Calm - N/A   Clear
6:53 PM 80.1 °F 39.0 °F 23% 29.73 in 10.0 mi East 11.5 mph 19.6 mph N/A   Clear
7:53 PM 79.0 °F 41.0 °F 26% 29.73 in 10.0 mi East 12.7 mph 21.9 mph N/A   Clear
8:53 PM 72.0 °F 46.9 °F 41% 29.76 in 9.0 mi South 10.4 mph 26.5 mph N/A   Clear
9:53 PM 68.0 °F 48.9 °F 50% 29.81 in 10.0 mi South 10.4 mph 16.1 mph N/A   Clear
10:53 PM 64.9 °F 48.9 °F 56% 29.84 in 10.0 mi SSW 8.1 mph - N/A   Partly Cloudy
11:53 PM 63.0 °F 46.9 °F 56% 29.86 in 10.0 mi SW 4.6 mph - N/A   Overcast